NOK266 VTBS-VECC

Flight info

Callsign NOK266
Flight time 2h 27m
Altitude 36000
Route TARED1J TARED P646 DOPID DOPID2A
Aircraft B738/M-SDE2E3FGHIRWXY/LB1

Departure

Time 2026-04-23 15:46
Airport Suvarnabhumi Airport (VTBS)

Arrival

Time 2026-04-23 18:13
Airport Netaji Subhash Chandra Bose International Airport (VECC)
Time Latitude Longitude Altitude Speed Heading
2026-04-23 15:21 13.69277 100.75540 -15 ft 0 kts 284°
2026-04-23 15:35 13.69275 100.75552 12 ft 2 kts 284°
2026-04-23 15:35 13.69271 100.75569 12 ft 2 kts 284°
2026-04-23 15:36 13.69268 100.75580 12 ft 2 kts 283°
2026-04-23 15:36 13.69264 100.75596 15 ft 2 kts 284°
2026-04-23 15:36 13.69261 100.75613 13 ft 2 kts 275°
2026-04-23 15:36 13.69262 100.75630 13 ft 2 kts 238°
2026-04-23 15:37 13.69274 100.75640 13 ft 2 kts 192°
2026-04-23 15:37 13.69286 100.75643 12 ft 1 kts 195°
2026-04-23 15:37 13.69287 100.75643 12 ft 0 kts 195°
2026-04-23 15:39 13.69285 100.75642 12 ft 1 kts 195°
2026-04-23 15:39 13.69256 100.75635 12 ft 6 kts 194°
2026-04-23 15:40 13.69210 100.75624 13 ft 8 kts 185°
2026-04-23 15:40 13.69163 100.75651 12 ft 9 kts 122°
2026-04-23 15:40 13.69145 100.75716 12 ft 10 kts 97°
2026-04-23 15:40 13.69126 100.75784 12 ft 10 kts 105°
2026-04-23 15:41 13.69108 100.75853 12 ft 11 kts 104°
2026-04-23 15:41 13.69091 100.75923 13 ft 3 kts 104°
2026-04-23 15:41 13.69088 100.75934 12 ft 0 kts 104°
2026-04-23 15:44 13.69085 100.75944 12 ft 4 kts 104°
2026-04-23 15:44 13.69074 100.75990 13 ft 9 kts 104°
2026-04-23 15:44 13.69042 100.76063 13 ft 13 kts 139°
2026-04-23 15:45 13.68990 100.76059 13 ft 0 kts 199°
2026-04-23 15:45 13.68862 100.76023 14 ft 51 kts 194°
2026-04-23 15:45 13.68288 100.75873 12 ft 118 kts 194°
2026-04-23 15:46 13.67319 100.75626 152 ft 160 kts 193°
2026-04-23 15:46 13.66209 100.75349 829 ft 164 kts 192°
2026-04-23 15:46 13.65111 100.75122 1663 ft 161 kts 179°
2026-04-23 15:46 13.63937 100.75169 2147 ft 184 kts 179°
2026-04-23 15:47 13.62558 100.75198 2386 ft 209 kts 180°
2026-04-23 15:47 13.61078 100.75226 2931 ft 214 kts 180°
2026-04-23 15:47 13.59556 100.75420 3181 ft 238 kts 160°
2026-04-23 15:47 13.57951 100.76154 3574 ft 256 kts 166°
2026-04-23 15:48 13.56220 100.76573 4266 ft 262 kts 167°
2026-04-23 15:48 13.54436 100.77033 5060 ft 266 kts 166°
2026-04-23 15:48 13.52626 100.77533 5770 ft 274 kts 165°
2026-04-23 15:48 13.50774 100.78056 6505 ft 277 kts 164°
2026-04-23 15:49 13.48893 100.78560 7222 ft 282 kts 171°
2026-04-23 15:49 13.46928 100.78448 7886 ft 287 kts 192°
2026-04-23 15:49 13.45020 100.77789 8581 ft 292 kts 211°
2026-04-23 15:49 13.43545 100.76346 9274 ft 297 kts 238°
2026-04-23 15:50 13.42857 100.74380 9937 ft 300 kts 265°
2026-04-23 15:50 13.43012 100.72226 10419 ft 311 kts 283°
2026-04-23 15:50 13.43880 100.70112 10558 ft 333 kts 306°
2026-04-23 15:50 13.45384 100.68201 10721 ft 353 kts 311°
2026-04-23 15:51 13.47057 100.66271 10964 ft 368 kts 313°
2026-04-23 15:51 13.48804 100.64301 11439 ft 374 kts 313°
2026-04-23 15:51 13.50543 100.62334 12059 ft 376 kts 313°
2026-04-23 15:51 13.52297 100.60333 12655 ft 379 kts 312°
2026-04-23 15:52 13.54067 100.58296 13205 ft 383 kts 312°
2026-04-23 15:52 13.55847 100.56231 13751 ft 386 kts 312°
2026-04-23 15:52 13.57633 100.54150 14258 ft 389 kts 311°
2026-04-23 15:52 13.59421 100.52059 14778 ft 391 kts 311°
2026-04-23 15:53 13.61199 100.49977 15275 ft 393 kts 312°
2026-04-23 15:53 13.63012 100.47852 15756 ft 395 kts 312°
2026-04-23 15:53 13.64829 100.45720 16245 ft 397 kts 312°
2026-04-23 15:53 13.66665 100.43566 16743 ft 399 kts 312°
2026-04-23 15:54 13.68483 100.41433 17212 ft 401 kts 312°
2026-04-23 15:54 13.70329 100.39266 17665 ft 404 kts 312°
2026-04-23 15:54 13.72188 100.37083 18119 ft 406 kts 312°
2026-04-23 15:54 13.74060 100.34885 18452 ft 410 kts 312°
2026-04-23 15:55 13.75952 100.32663 18821 ft 412 kts 312°
2026-04-23 15:55 13.77844 100.30439 19223 ft 413 kts 312°
2026-04-23 15:55 13.79739 100.28211 19590 ft 415 kts 312°
2026-04-23 15:55 13.81651 100.25964 19914 ft 418 kts 312°
2026-04-23 15:56 13.83552 100.23729 20248 ft 421 kts 312°
2026-04-23 15:56 13.85484 100.21456 20597 ft 423 kts 312°
2026-04-23 15:56 13.87362 100.19247 20932 ft 425 kts 312°
2026-04-23 15:56 13.89318 100.16945 21260 ft 427 kts 312°
2026-04-23 15:57 13.91285 100.14630 21593 ft 429 kts 312°
2026-04-23 15:57 13.93255 100.12310 21925 ft 431 kts 311°
2026-04-23 15:57 13.95247 100.09964 22239 ft 434 kts 311°
2026-04-23 15:57 13.97212 100.07650 22551 ft 436 kts 311°
2026-04-23 15:58 13.99217 100.05286 22847 ft 438 kts 311°
2026-04-23 15:58 14.01229 100.02914 23147 ft 440 kts 311°
2026-04-23 15:58 14.03254 100.00526 23426 ft 443 kts 311°
2026-04-23 15:58 14.05288 99.98127 23661 ft 444 kts 311°
2026-04-23 15:59 14.07301 99.95752 23926 ft 446 kts 311°
2026-04-23 15:59 14.09351 99.93332 24180 ft 447 kts 311°
2026-04-23 15:59 14.11394 99.90920 24429 ft 448 kts 311°
2026-04-23 15:59 14.13452 99.88490 24665 ft 449 kts 311°
2026-04-23 16:00 14.15516 99.86051 24917 ft 451 kts 311°
2026-04-23 16:00 14.17581 99.83611 25154 ft 452 kts 311°
2026-04-23 16:00 14.19632 99.81186 25364 ft 454 kts 311°
2026-04-23 16:00 14.21717 99.78721 25600 ft 455 kts 311°
2026-04-23 16:01 14.23803 99.76253 25843 ft 457 kts 311°
2026-04-23 16:01 14.25897 99.73776 26080 ft 458 kts 311°
2026-04-23 16:01 14.27996 99.71292 26310 ft 459 kts 311°
2026-04-23 16:01 14.30098 99.68803 26539 ft 460 kts 311°
2026-04-23 16:02 14.32181 99.66336 26763 ft 462 kts 311°
2026-04-23 16:02 14.34296 99.63831 26982 ft 463 kts 311°
2026-04-23 16:02 14.36415 99.61318 27197 ft 464 kts 311°
2026-04-23 16:02 14.38549 99.58788 27399 ft 466 kts 311°
2026-04-23 16:03 14.40679 99.56263 27607 ft 467 kts 311°
2026-04-23 16:03 14.42780 99.53758 27811 ft 468 kts 309°
2026-04-23 16:03 14.44702 99.51028 27997 ft 470 kts 301°
2026-04-23 16:03 14.46260 99.48068 28203 ft 471 kts 298°
2026-04-23 16:04 14.47763 99.45040 28401 ft 472 kts 297°
2026-04-23 16:04 14.49248 99.42010 28589 ft 473 kts 297°
2026-04-23 16:04 14.50724 99.39008 28764 ft 474 kts 297°
2026-04-23 16:04 14.52228 99.35969 28983 ft 475 kts 297°
2026-04-23 16:05 14.53250 99.33918 29157 ft 474 kts 297°
2026-04-23 16:05 14.55253 99.29923 29605 ft 472 kts 298°
2026-04-23 16:05 14.56771 99.26909 29931 ft 470 kts 298°
2026-04-23 16:05 14.58284 99.23907 30188 ft 469 kts 298°
2026-04-23 16:06 14.59771 99.20955 30417 ft 469 kts 298°
2026-04-23 16:06 14.61284 99.17952 30656 ft 468 kts 297°
2026-04-23 16:06 14.62787 99.14966 30865 ft 468 kts 297°
2026-04-23 16:06 14.64270 99.12020 31091 ft 468 kts 297°
2026-04-23 16:07 14.65773 99.09030 31346 ft 467 kts 297°
2026-04-23 16:07 14.67271 99.06047 31602 ft 466 kts 297°
2026-04-23 16:07 14.68763 99.03078 31846 ft 466 kts 297°
2026-04-23 16:07 14.70255 99.00105 32085 ft 466 kts 297°
2026-04-23 16:08 14.71734 98.97159 32324 ft 465 kts 297°
2026-04-23 16:08 14.73226 98.94184 32591 ft 464 kts 297°
2026-04-23 16:08 14.74710 98.91225 32864 ft 463 kts 297°
2026-04-23 16:08 14.76193 98.88267 33140 ft 462 kts 297°
2026-04-23 16:09 14.77676 98.85308 33413 ft 461 kts 297°
2026-04-23 16:09 14.79150 98.82364 33671 ft 461 kts 296°
2026-04-23 16:09 14.80608 98.79453 33931 ft 460 kts 296°
2026-04-23 16:09 14.82083 98.76506 34161 ft 459 kts 296°
2026-04-23 16:10 14.83552 98.73571 34358 ft 459 kts 296°
2026-04-23 16:10 14.85022 98.70631 34555 ft 459 kts 296°
2026-04-23 16:10 14.86488 98.67698 34752 ft 459 kts 296°
2026-04-23 16:10 14.87937 98.64800 34951 ft 459 kts 296°
2026-04-23 16:11 14.89402 98.61866 35141 ft 459 kts 296°
2026-04-23 16:11 14.90871 98.58924 35328 ft 459 kts 296°
2026-04-23 16:11 14.92338 98.55986 35530 ft 459 kts 296°
2026-04-23 16:11 14.93801 98.53052 35726 ft 458 kts 296°
2026-04-23 16:12 14.95261 98.50126 35877 ft 459 kts 296°
2026-04-23 16:12 14.98183 98.44262 35886 ft 461 kts 296°
2026-04-23 16:13 15.01110 98.38387 35878 ft 457 kts 296°
2026-04-23 16:13 15.05436 98.29691 35880 ft 452 kts 296°
2026-04-23 16:14 15.08310 98.23908 35877 ft 450 kts 296°
2026-04-23 16:14 15.11166 98.18136 35885 ft 450 kts 296°
2026-04-23 16:15 15.13964 98.12377 35886 ft 451 kts 295°
2026-04-23 16:15 15.16788 98.06547 35878 ft 453 kts 295°
2026-04-23 16:16 15.19603 98.00740 35882 ft 455 kts 295°
2026-04-23 16:16 15.22457 97.94855 35872 ft 457 kts 295°
2026-04-23 16:17 15.25313 97.88962 35862 ft 458 kts 295°
2026-04-23 16:17 15.28177 97.83049 35862 ft 459 kts 295°
2026-04-23 16:18 15.31022 97.77168 35853 ft 459 kts 295°
2026-04-23 16:18 15.33884 97.71247 35860 ft 458 kts 295°
2026-04-23 16:19 15.36755 97.65456 35845 ft 458 kts 301°
2026-04-23 16:19 15.40435 97.60047 35840 ft 458 kts 305°
2026-04-23 16:20 15.44213 97.54780 35850 ft 457 kts 305°
2026-04-23 16:20 15.47975 97.49479 35838 ft 455 kts 304°
2026-04-23 16:21 15.51703 97.44155 35849 ft 455 kts 304°
2026-04-23 16:21 15.55387 97.38862 35840 ft 454 kts 304°
2026-04-23 16:22 15.59084 97.33542 35845 ft 454 kts 304°
2026-04-23 16:22 15.62756 97.28256 35842 ft 453 kts 304°
2026-04-23 16:23 15.66450 97.22937 35848 ft 454 kts 304°
2026-04-23 16:23 15.70148 97.17608 35839 ft 454 kts 304°
2026-04-23 16:24 15.73820 97.12313 35842 ft 454 kts 304°
2026-04-23 16:24 15.77529 97.06962 35840 ft 455 kts 304°
2026-04-23 16:25 15.81205 97.01653 35839 ft 455 kts 304°
2026-04-23 16:25 15.84908 96.96303 35839 ft 455 kts 304°
2026-04-23 16:26 15.87985 96.91853 35831 ft 456 kts 303°
2026-04-23 16:26 15.91688 96.86495 35830 ft 456 kts 303°
2026-04-23 16:27 15.95368 96.81166 35828 ft 455 kts 303°
2026-04-23 16:27 15.99068 96.75806 35834 ft 455 kts 303°
2026-04-23 16:28 16.02763 96.70447 35830 ft 455 kts 303°
2026-04-23 16:28 16.06432 96.65122 35831 ft 454 kts 303°
2026-04-23 16:29 16.10115 96.59775 35826 ft 454 kts 303°
2026-04-23 16:29 16.13790 96.54433 35829 ft 453 kts 303°
2026-04-23 16:30 16.17443 96.49121 35831 ft 453 kts 303°
2026-04-23 16:30 16.21114 96.43778 35831 ft 453 kts 303°
2026-04-23 16:31 16.24757 96.38472 35826 ft 452 kts 303°
2026-04-23 16:31 16.28420 96.33133 35827 ft 452 kts 303°
2026-04-23 16:32 16.32056 96.27830 35827 ft 452 kts 303°
2026-04-23 16:32 16.35707 96.22500 35829 ft 452 kts 303°
2026-04-23 16:33 16.39364 96.17158 35827 ft 452 kts 303°
2026-04-23 16:33 16.42994 96.11851 35824 ft 452 kts 303°
2026-04-23 16:34 16.46648 96.06505 35830 ft 451 kts 303°
2026-04-23 16:34 16.50274 96.01197 35827 ft 451 kts 303°
2026-04-23 16:35 16.53918 95.95857 35826 ft 451 kts 303°
2026-04-23 16:35 16.57565 95.90510 35827 ft 451 kts 303°
2026-04-23 16:36 16.61183 95.85201 35824 ft 451 kts 303°
2026-04-23 16:36 16.64824 95.79855 35830 ft 451 kts 303°
2026-04-23 16:37 16.68457 95.74517 35827 ft 451 kts 303°
2026-04-23 16:37 16.72059 95.69218 35829 ft 450 kts 303°
2026-04-23 16:38 16.75684 95.63884 35829 ft 450 kts 303°
2026-04-23 16:38 16.79316 95.58534 35825 ft 450 kts 302°
2026-04-23 16:39 16.82940 95.53192 35827 ft 449 kts 302°
2026-04-23 16:39 16.86530 95.47896 35828 ft 449 kts 302°
2026-04-23 16:40 16.90141 95.42567 35830 ft 449 kts 302°
2026-04-23 16:40 16.93753 95.37230 35827 ft 448 kts 302°
2026-04-23 16:41 16.97357 95.31900 35822 ft 448 kts 302°
2026-04-23 16:41 17.00936 95.26605 35825 ft 448 kts 302°
2026-04-23 16:42 17.04534 95.21277 35824 ft 448 kts 302°
2026-04-23 16:42 17.08117 95.15967 35825 ft 448 kts 302°
2026-04-23 16:43 17.11713 95.10633 35822 ft 448 kts 302°
2026-04-23 16:43 17.15309 95.05297 35825 ft 448 kts 302°
2026-04-23 16:44 17.18886 94.99984 35826 ft 448 kts 302°
2026-04-23 16:44 17.22484 94.94635 35828 ft 448 kts 302°
2026-04-23 16:45 17.26076 94.89292 35831 ft 448 kts 302°
2026-04-23 16:45 17.29642 94.83982 35827 ft 448 kts 302°
2026-04-23 16:46 17.33234 94.78630 35828 ft 449 kts 302°
2026-04-23 16:46 17.36829 94.73269 35825 ft 448 kts 302°
2026-04-23 16:47 17.40414 94.67919 35833 ft 448 kts 302°
2026-04-23 16:47 17.43971 94.62606 35838 ft 448 kts 302°
2026-04-23 16:48 17.47553 94.57252 35836 ft 448 kts 302°
2026-04-23 16:48 17.51114 94.51925 35834 ft 448 kts 302°
2026-04-23 16:49 17.54689 94.46573 35836 ft 447 kts 301°
2026-04-23 16:49 17.58262 94.41220 35836 ft 447 kts 301°
2026-04-23 16:50 17.61813 94.35895 35834 ft 447 kts 301°
2026-04-23 16:50 17.65381 94.30541 35835 ft 447 kts 301°
2026-04-23 16:51 17.68922 94.25223 35838 ft 447 kts 301°
2026-04-23 16:51 17.72487 94.19864 35835 ft 447 kts 301°
2026-04-23 16:52 17.76022 94.14546 35835 ft 447 kts 301°
2026-04-23 16:52 17.79584 94.09184 35833 ft 447 kts 301°
2026-04-23 16:53 17.83120 94.03856 35833 ft 447 kts 301°
2026-04-23 16:53 17.86677 93.98493 35832 ft 447 kts 301°
2026-04-23 16:54 17.90234 93.93123 35833 ft 447 kts 301°
2026-04-23 16:54 17.93766 93.87790 35833 ft 447 kts 301°
2026-04-23 16:55 17.97320 93.82417 35831 ft 447 kts 301°
2026-04-23 16:55 18.00845 93.77088 35822 ft 437 kts 301°
2026-04-23 16:56 18.04261 93.71919 35834 ft 432 kts 301°
2026-04-23 16:56 18.07694 93.66713 35838 ft 433 kts 301°
2026-04-23 16:57 18.11110 93.61531 35835 ft 433 kts 301°
2026-04-23 16:57 18.14552 93.56306 35835 ft 434 kts 301°
2026-04-23 16:58 18.17994 93.51077 35834 ft 434 kts 301°
2026-04-23 16:58 18.21419 93.45871 35835 ft 434 kts 301°
2026-04-23 16:59 18.24864 93.40630 35835 ft 435 kts 301°
2026-04-23 16:59 18.28289 93.35415 35837 ft 434 kts 301°
2026-04-23 17:00 18.31723 93.30184 35834 ft 434 kts 301°
2026-04-23 17:00 18.35157 93.24946 35839 ft 433 kts 301°
2026-04-23 17:01 18.38579 93.19724 35842 ft 433 kts 301°
2026-04-23 17:01 18.41978 93.14531 35834 ft 432 kts 301°
2026-04-23 17:02 18.45388 93.09319 35835 ft 432 kts 301°
2026-04-23 17:02 18.48798 93.04101 35835 ft 431 kts 301°
2026-04-23 17:03 18.52178 92.98926 35836 ft 431 kts 301°
2026-04-23 17:03 18.55577 92.93716 35837 ft 430 kts 301°
2026-04-23 17:04 18.58952 92.88540 35833 ft 430 kts 301°
2026-04-23 17:04 18.62340 92.83340 35833 ft 429 kts 301°
2026-04-23 17:05 18.65728 92.78135 35835 ft 429 kts 301°
2026-04-23 17:05 18.69090 92.72965 35832 ft 429 kts 301°
2026-04-23 17:06 18.72470 92.67764 35833 ft 429 kts 301°
2026-04-23 17:06 18.75826 92.62595 35833 ft 429 kts 301°
2026-04-23 17:07 18.79205 92.57386 35833 ft 429 kts 301°
2026-04-23 17:07 18.82572 92.52193 35833 ft 429 kts 301°
2026-04-23 17:08 18.85925 92.47016 35832 ft 428 kts 301°
2026-04-23 17:08 18.89297 92.41806 35831 ft 428 kts 300°
2026-04-23 17:09 18.92668 92.36593 35831 ft 428 kts 300°
2026-04-23 17:09 18.96012 92.31417 35831 ft 428 kts 300°
2026-04-23 17:10 18.99355 92.26239 35832 ft 428 kts 300°
2026-04-23 17:10 19.02717 92.21026 35830 ft 428 kts 300°
2026-04-23 17:11 19.06053 92.15850 35828 ft 428 kts 300°
2026-04-23 17:11 19.08859 92.11493 35827 ft 427 kts 300°
2026-04-23 17:12 19.12751 92.05444 35826 ft 427 kts 300°
2026-04-23 17:12 19.16085 92.00259 35824 ft 427 kts 300°
2026-04-23 17:13 19.18868 91.95927 35824 ft 427 kts 300°
2026-04-23 17:13 19.22213 91.90714 35826 ft 427 kts 300°
2026-04-23 17:14 19.25530 91.85543 35830 ft 427 kts 300°
2026-04-23 17:14 19.28864 91.80339 35827 ft 426 kts 300°
2026-04-23 17:15 19.32197 91.75133 35825 ft 426 kts 300°
2026-04-23 17:15 19.35531 91.69922 35821 ft 426 kts 300°
2026-04-23 17:16 19.38833 91.64756 35824 ft 426 kts 300°
2026-04-23 17:16 19.42162 91.59543 35817 ft 426 kts 300°
2026-04-23 17:17 19.45463 91.54369 35820 ft 426 kts 300°
2026-04-23 17:17 19.48783 91.49162 35817 ft 425 kts 300°
2026-04-23 17:18 19.53753 91.41357 35818 ft 425 kts 300°
2026-04-23 17:19 19.57045 91.36184 35820 ft 425 kts 300°
2026-04-23 17:19 19.60358 91.30971 35814 ft 425 kts 300°
2026-04-23 17:20 19.63646 91.25792 35817 ft 425 kts 300°
2026-04-23 17:21 19.70240 91.15396 35814 ft 425 kts 300°
2026-04-23 17:21 19.75169 91.07613 35806 ft 424 kts 300°
2026-04-23 17:22 19.80115 90.99793 35810 ft 424 kts 300°
2026-04-23 17:23 19.85054 90.91973 35806 ft 424 kts 299°
2026-04-23 17:24 19.89973 90.84175 35805 ft 424 kts 299°
2026-04-23 17:24 19.94875 90.76394 35807 ft 423 kts 299°
2026-04-23 17:25 19.99778 90.68601 35804 ft 423 kts 299°
2026-04-23 17:26 20.06325 90.58178 35803 ft 422 kts 299°
2026-04-23 17:27 20.11202 90.50403 35802 ft 422 kts 299°
2026-04-23 17:27 20.14463 90.45199 35804 ft 422 kts 299°
2026-04-23 17:28 20.17697 90.40032 35803 ft 421 kts 298°
2026-04-23 17:28 20.20951 90.34830 35801 ft 421 kts 298°
2026-04-23 17:29 20.24201 90.29629 35799 ft 420 kts 298°
2026-04-23 17:30 20.29044 90.21869 35802 ft 420 kts 298°
2026-04-23 17:30 20.33877 90.14115 35803 ft 419 kts 298°
2026-04-23 17:31 20.37109 90.08924 35802 ft 419 kts 298°
2026-04-23 17:31 20.40317 90.03767 35800 ft 419 kts 298°
2026-04-23 17:32 20.43538 89.98586 35799 ft 418 kts 298°
2026-04-23 17:32 20.46749 89.93414 35799 ft 418 kts 298°
2026-04-23 17:33 20.49939 89.88272 35794 ft 417 kts 298°
2026-04-23 17:33 20.53145 89.83100 35794 ft 417 kts 298°
2026-04-23 17:34 20.56331 89.77955 35795 ft 417 kts 298°
2026-04-23 17:35 20.61131 89.70196 35794 ft 416 kts 298°
2026-04-23 17:35 20.65901 89.62475 35794 ft 416 kts 298°
2026-04-23 17:36 20.69095 89.57299 35795 ft 416 kts 298°
2026-04-23 17:36 20.72261 89.52164 35791 ft 416 kts 298°
2026-04-23 17:37 20.75443 89.46997 35791 ft 416 kts 298°
2026-04-23 17:38 20.79869 89.39804 35794 ft 416 kts 298°
2026-04-23 17:38 20.83051 89.34626 35789 ft 416 kts 298°
2026-04-23 17:39 20.86198 89.29500 35788 ft 416 kts 298°
2026-04-23 17:39 20.89378 89.24318 35785 ft 416 kts 298°
2026-04-23 17:40 20.93338 89.19723 35783 ft 434 kts 320°
2026-04-23 17:40 20.98842 89.16826 35789 ft 443 kts 328°
2026-04-23 17:41 21.04474 89.14196 35781 ft 444 kts 328°
2026-04-23 17:41 21.12916 89.10185 35782 ft 443 kts 328°
2026-04-23 17:42 21.21339 89.06100 35784 ft 442 kts 327°
2026-04-23 17:42 21.24156 89.04727 35396 ft 448 kts 327°
2026-04-23 17:43 21.26960 89.03359 34843 ft 447 kts 328°
2026-04-23 17:43 21.29803 89.01975 34209 ft 448 kts 328°
2026-04-23 17:43 21.32650 89.00589 33491 ft 450 kts 328°
2026-04-23 17:43 21.35510 88.99196 32737 ft 451 kts 328°
2026-04-23 17:44 21.38378 88.97799 32065 ft 451 kts 328°
2026-04-23 17:44 21.41191 88.96431 31588 ft 446 kts 328°
2026-04-23 17:44 21.46818 88.93692 30569 ft 439 kts 328°
2026-04-23 17:45 21.49594 88.92337 30068 ft 437 kts 329°
2026-04-23 17:45 21.55080 88.89658 28975 ft 430 kts 329°
2026-04-23 17:45 21.57797 88.88330 28446 ft 426 kts 330°
2026-04-23 17:46 21.63136 88.85719 27449 ft 419 kts 330°
2026-04-23 17:46 21.65780 88.84425 26960 ft 415 kts 330°
2026-04-23 17:46 21.68405 88.83140 26474 ft 412 kts 331°
2026-04-23 17:47 21.71012 88.81862 25991 ft 409 kts 331°
2026-04-23 17:47 21.73593 88.80597 25510 ft 407 kts 332°
2026-04-23 17:47 21.78705 88.78090 24524 ft 404 kts 332°
2026-04-23 17:48 21.81261 88.76835 24040 ft 402 kts 333°
2026-04-23 17:48 21.83808 88.75585 23553 ft 401 kts 333°
2026-04-23 17:48 21.86327 88.74349 23018 ft 401 kts 334°
2026-04-23 17:48 21.88859 88.73105 22498 ft 398 kts 334°
2026-04-23 17:49 21.91373 88.71870 22005 ft 396 kts 334°
2026-04-23 17:49 21.93829 88.70663 21533 ft 393 kts 334°
2026-04-23 17:49 21.96360 88.69419 21050 ft 391 kts 334°
2026-04-23 17:49 21.98836 88.68201 20580 ft 389 kts 335°
2026-04-23 17:50 22.01226 88.67025 20112 ft 387 kts 335°
2026-04-23 17:50 22.06122 88.64615 19152 ft 386 kts 336°
2026-04-23 17:50 22.08565 88.63411 18682 ft 385 kts 336°
2026-04-23 17:51 22.10999 88.62211 18204 ft 385 kts 337°
2026-04-23 17:51 22.13437 88.61010 17685 ft 384 kts 337°
2026-04-23 17:51 22.18255 88.58634 16737 ft 380 kts 337°
2026-04-23 17:52 22.20654 88.57450 16279 ft 377 kts 336°
2026-04-23 17:52 22.25368 88.55123 15393 ft 372 kts 336°
2026-04-23 17:52 22.27715 88.53978 14966 ft 368 kts 339°
2026-04-23 17:53 22.32747 88.53551 13919 ft 366 kts
2026-04-23 17:53 22.35281 88.53839 13406 ft 365 kts
2026-04-23 17:53 22.37774 88.54136 12926 ft 362 kts
2026-04-23 17:54 22.40269 88.54427 12476 ft 359 kts
2026-04-23 17:54 22.42746 88.54706 12033 ft 356 kts
2026-04-23 17:54 22.47637 88.55238 11181 ft 349 kts
2026-04-23 17:55 22.52410 88.55746 10355 ft 344 kts
2026-04-23 17:55 22.54739 88.55993 10333 ft 328 kts
2026-04-23 17:55 22.56982 88.56231 10202 ft 318 kts
2026-04-23 17:56 22.59153 88.56462 10090 ft 307 kts
2026-04-23 17:56 22.63291 88.56899 9648 ft 297 kts
2026-04-23 17:56 22.65348 88.57116 9324 ft 295 kts
2026-04-23 17:57 22.67392 88.57332 9006 ft 294 kts
2026-04-23 17:57 22.69422 88.57547 8682 ft 292 kts
2026-04-23 17:57 22.73432 88.57950 8098 ft 288 kts
2026-04-23 17:58 22.75396 88.58142 7987 ft 279 kts
2026-04-23 17:58 22.77306 88.58328 7852 ft 271 kts
2026-04-23 17:58 22.79168 88.58510 7738 ft 263 kts
2026-04-23 17:58 22.80367 88.58628 7661 ft 258 kts
2026-04-23 17:59 22.82699 88.58857 7509 ft 248 kts
2026-04-23 17:59 22.84388 88.59023 7409 ft 240 kts
2026-04-23 17:59 22.85489 88.59144 7266 ft 239 kts
2026-04-23 17:59 22.87131 88.59401 7032 ft 237 kts
2026-04-23 18:00 22.88769 88.59676 6709 ft 241 kts
2026-04-23 18:00 22.90458 88.59954 6297 ft 248 kts
2026-04-23 18:00 22.92177 88.60235 5845 ft 250 kts
2026-04-23 18:00 22.93912 88.60516 5364 ft 253 kts
2026-04-23 18:01 22.95650 88.60795 4849 ft 257 kts
2026-04-23 18:01 22.97439 88.61083 4336 ft 260 kts
2026-04-23 18:01 22.99222 88.61386 3810 ft 263 kts
2026-04-23 18:01 23.01039 88.61720 3289 ft 266 kts
2026-04-23 18:02 23.02871 88.62082 2767 ft 268 kts 11°
2026-04-23 18:02 23.04725 88.62117 2251 ft 269 kts 342°
2026-04-23 18:02 23.06222 88.61045 2071 ft 252 kts 305°
2026-04-23 18:02 23.06871 88.59381 2021 ft 230 kts 281°
2026-04-23 18:03 23.07174 88.57705 1995 ft 224 kts 278°
2026-04-23 18:03 23.07442 88.56067 1982 ft 222 kts 277°
2026-04-23 18:03 23.07295 88.54476 1959 ft 205 kts 239°
2026-04-23 18:03 23.06290 88.53575 1958 ft 183 kts 192°
2026-04-23 18:04 23.05066 88.53721 1999 ft 177 kts 169°
2026-04-23 18:04 23.03888 88.53532 1998 ft 171 kts 203°
2026-04-23 18:04 23.02760 88.53064 1975 ft 175 kts 198°
2026-04-23 18:04 23.01621 88.52637 1991 ft 173 kts 199°
2026-04-23 18:05 23.00521 88.52214 1962 ft 166 kts 199°
2026-04-23 18:05 22.99423 88.51784 1969 ft 167 kts 200°
2026-04-23 18:05 22.98339 88.51351 1976 ft 165 kts 200°
2026-04-23 18:05 22.97268 88.50916 1968 ft 163 kts 200°
2026-04-23 18:06 22.96223 88.50487 1985 ft 162 kts 201°
2026-04-23 18:06 22.95168 88.50049 1967 ft 162 kts 200°
2026-04-23 18:06 22.94124 88.49613 1987 ft 159 kts 200°
2026-04-23 18:06 22.93082 88.49177 1981 ft 161 kts 200°
2026-04-23 18:07 22.92030 88.48737 1983 ft 162 kts 201°
2026-04-23 18:07 22.90977 88.48295 1983 ft 163 kts 200°
2026-04-23 18:07 22.89906 88.47885 1986 ft 163 kts 194°
2026-04-23 18:07 22.88813 88.47624 1979 ft 163 kts 190°
2026-04-23 18:08 22.87695 88.47433 1979 ft 162 kts 187°
2026-04-23 18:08 22.86571 88.47276 1993 ft 164 kts 186°
2026-04-23 18:08 22.85430 88.47132 1984 ft 165 kts 186°
2026-04-23 18:08 22.84291 88.46994 1983 ft 164 kts 186°
2026-04-23 18:09 22.83156 88.46860 1987 ft 164 kts 186°
2026-04-23 18:09 22.82032 88.46727 2019 ft 159 kts 185°
2026-04-23 18:09 22.80966 88.46602 1987 ft 152 kts 186°
2026-04-23 18:09 22.79913 88.46478 1998 ft 153 kts 186°
2026-04-23 18:10 22.78854 88.46354 1999 ft 152 kts 186°
2026-04-23 18:10 22.77806 88.46230 1984 ft 151 kts 186°
2026-04-23 18:10 22.76747 88.46105 1845 ft 154 kts 186°
2026-04-23 18:10 22.75704 88.45983 1661 ft 150 kts 186°
2026-04-23 18:11 22.74678 88.45862 1463 ft 146 kts 187°
2026-04-23 18:11 22.73666 88.45742 1298 ft 148 kts 186°
2026-04-23 18:11 22.72629 88.45620 1086 ft 150 kts 186°
2026-04-23 18:11 22.71583 88.45497 902 ft 150 kts 186°
2026-04-23 18:12 22.70550 88.45375 710 ft 149 kts 187°
2026-04-23 18:12 22.69511 88.45250 505 ft 154 kts 187°
2026-04-23 18:12 22.68453 88.45129 319 ft 153 kts 186°
2026-04-23 18:12 22.67392 88.45002 140 ft 153 kts 186°
2026-04-23 18:13 22.66415 88.44886 28 ft 135 kts 184°
2026-04-23 18:13 22.65697 88.44803 29 ft 73 kts 186°
2026-04-23 18:13 22.65331 88.44760 27 ft 43 kts 186°
2026-04-23 18:13 22.65079 88.44731 26 ft 34 kts 186°
2026-04-23 18:14 22.64899 88.44649 27 ft 21 kts 214°
2026-04-23 18:14 22.64816 88.44589 24 ft 1 kts 214°
2026-04-23 18:14 22.64813 88.44587 24 ft 1 kts 214°
2026-04-23 18:14 22.64802 88.44580 24 ft 3 kts 214°
2026-04-23 18:15 22.64771 88.44556 24 ft 8 kts 214°
2026-04-23 18:15 22.64706 88.44509 26 ft 14 kts 213°
2026-04-23 18:15 22.64659 88.44429 25 ft 14 kts 272°
2026-04-23 18:15 22.64670 88.44303 26 ft 18 kts 277°
2026-04-23 18:16 22.64675 88.44255 28 ft 5 kts 277°
2026-04-23 18:16 22.64680 88.44214 26 ft 6 kts 276°
2026-04-23 18:16 22.64656 88.44185 26 ft 6 kts 204°
2026-04-23 18:17 22.64578 88.44177 28 ft 6 kts 185°
2026-04-23 18:17 22.64539 88.44172 31 ft 5 kts 187°
2026-04-23 18:17 22.64517 88.44166 28 ft 3 kts 211°
2026-04-23 18:17 22.64510 88.44147 28 ft 3 kts 257°
2026-04-23 18:18 22.64510 88.44126 27 ft 3 kts 272°
2026-04-23 18:18 22.64511 88.44107 26 ft 2 kts 272°